TimeEST,TemperatureF,Dew PointF,Humidity,Sea Level PressureIn,VisibilityMPH,Wind Direction,Wind SpeedMPH,Gust SpeedMPH,PrecipitationIn,Events,Conditions,WindDirDegrees,DateUTC
12:52 AM,30.9,26.1,82,30.26,6.0,Calm,Calm,-,N/A,,Haze,0,2012-11-22 05:52:00
1:11 AM,30.2,28.4,93,30.25,7.0,Calm,Calm,-,N/A,,Scattered Clouds,0,2012-11-22 06:11:00
1:52 AM,30.0,27.0,88,30.25,6.0,Calm,Calm,-,N/A,,Clear,0,2012-11-22 06:52:00
2:52 AM,28.9,26.1,89,30.26,7.0,Calm,Calm,-,N/A,,Partly Cloudy,0,2012-11-22 07:52:00
3:52 AM,28.9,25.0,85,30.25,7.0,Calm,Calm,-,N/A,,Clear,0,2012-11-22 08:52:00
4:52 AM,28.0,24.1,85,30.26,8.0,Calm,Calm,-,N/A,,Clear,0,2012-11-22 09:52:00
5:52 AM,28.0,23.0,81,30.27,8.0,Calm,Calm,-,N/A,,Clear,0,2012-11-22 10:52:00
6:52 AM,28.0,23.0,81,30.27,7.0,Calm,Calm,-,N/A,,Clear,0,2012-11-22 11:52:00
7:52 AM,30.9,26.1,82,30.28,7.0,Calm,Calm,-,N/A,,Clear,0,2012-11-22 12:52:00
8:29 AM,33.8,28.4,81,30.28,7.0,Calm,Calm,-,N/A,,Partly Cloudy,0,2012-11-22 13:29:00
8:52 AM,35.1,30.0,82,30.30,8.0,Calm,Calm,-,N/A,,Mostly Cloudy,0,2012-11-22 13:52:00
9:20 AM,37.4,32.0,81,30.28,8.0,Calm,Calm,-,N/A,,Scattered Clouds,0,2012-11-22 14:20:00
9:52 AM,43.0,35.1,74,30.29,9.0,Calm,Calm,-,N/A,,Clear,0,2012-11-22 14:52:00
10:52 AM,52.0,39.0,61,30.26,10.0,North,3.5,-,N/A,,Clear,360,2012-11-22 15:52:00
11:52 AM,54.0,37.9,55,30.23,10.0,Calm,Calm,-,N/A,,Clear,0,2012-11-22 16:52:00
12:52 PM,55.9,36.0,47,30.21,10.0,Calm,Calm,-,N/A,,Clear,0,2012-11-22 17:52:00
1:52 PM,55.9,36.0,47,30.19,10.0,Calm,Calm,-,N/A,,Clear,0,2012-11-22 18:52:00
2:52 PM,57.9,35.1,42,30.18,10.0,Calm,Calm,-,N/A,,Clear,0,2012-11-22 19:52:00
3:52 PM,55.9,35.1,45,30.18,10.0,Calm,Calm,-,N/A,,Clear,0,2012-11-22 20:52:00
4:52 PM,46.0,35.1,66,30.19,10.0,Calm,Calm,-,N/A,,Clear,0,2012-11-22 21:52:00
5:52 PM,41.0,34.0,76,30.20,10.0,Calm,Calm,-,N/A,,Clear,0,2012-11-22 22:52:00
6:52 PM,41.0,34.0,76,30.20,10.0,Calm,Calm,-,N/A,,Clear,0,2012-11-22 23:52:00
7:52 PM,36.0,32.0,86,30.20,10.0,Calm,Calm,-,N/A,,Clear,0,2012-11-23 00:52:00
8:52 PM,34.0,28.9,82,30.19,10.0,Calm,Calm,-,N/A,,Clear,0,2012-11-23 01:52:00
9:52 PM,33.1,28.9,85,30.18,9.0,Calm,Calm,-,N/A,,Clear,0,2012-11-23 02:52:00
10:52 PM,32.0,28.0,85,30.17,7.0,Calm,Calm,-,N/A,,Clear,0,2012-11-23 03:52:00
11:52 PM,30.0,26.1,85,30.15,6.0,Calm,Calm,-,N/A,,Clear,0,2012-11-23 04:52:00